Location: Knobs
(40.8333°S, 175.2333°E)
Time: 02:16:52
(UTC+00:00)

Cosmos 1743 - Pass Details

Date: 12 June 2024
Orbit: 473 x 485 km, 82.5° (Epoch: 22 July)

Event Time Altitude Azimuth Distance (km) Brightness Sun altitude
Exits shadow 19:03:17 - 198° (SSW) 2,624 5.9 -7.2°
Rises 19:03:21 0° 198° (SSW) 2,598 5.9 -7.1°
Reaches altitude 10° 19:05:38 10° 208° (SSW) 1,703 4.8 -6.8°
Maximum altitude 19:08:57 31° 271° (W) 889 3.4 -6.2°
Drops below altitude 10° 19:12:12 10° 334° (NNW) 1,668 5.3 -5.6°
Sets 19:14:25 0° 344° (NNW) 2,534 6.4 -5.3°
